EW1940 Weather Reports


Display with metric or nautical units.
time (UTC)temp
F
wind
direction
speed
MPH
gust
MPH
rain 1hr
in
rain 24hr
in
rain mn
in
humidity
%
barometer
mb
20260904043518 69 225 9.0 17.0 0.00 0.00 0.00 91 1013.1
20260904042517 69 225 10.0 21.0 0.00 0.00 0.00 91 1013.1
20260904041517 69 248 12.0 22.0 0.00 0.00 0.00 91 1013.2
20260904040518 69 225 10.0 22.0 0.00 0.00 0.00 91 1013.4
20260904035517 68 248 11.0 22.0 0.00 0.00 0.00 92 1013.6
20260904034544 68 225 11.0 21.0 0.00 0.00 0.00 92 1013.8
20260904033518 68 248 9.0 18.0 0.00 0.00 0.00 92 1014.0
20260904032518 68 225 9.0 17.0 0.00 0.00 0.00 91 1014.1
20260904031518 68 248 11.0 20.0 0.00 0.00 0.00 91 1014.2
20260904030518 69 225 10.0 16.0 0.00 0.00 0.00 91 1014.2
20260904025518 68 248 11.0 20.0 0.00 0.00 0.00 91 1014.3
20260904024517 68 248 12.0 23.0 0.00 0.00 0.00 91 1014.3
20260904023517 68 248 8.0 14.0 0.00 0.00 0.00 92 1014.3
20260904022517 68 248 9.0 15.0 0.00 0.00 0.00 92 1014.4
20260904021517 68 248 9.0 16.0 0.00 0.00 0.00 92 1014.6
20260904020516 68 248 6.0 13.0 0.00 0.00 0.00 92 1014.9
20260904015517 68 248 7.0 14.0 0.00 0.00 0.00 92 1015.0
20260904014518 68 248 9.0 16.0 0.00 0.00 0.00 92 1015.1
20260904013522 68 225 9.0 18.0 0.00 0.00 0.00 93 1015.1
20260904012516 68 248 10.0 19.0 0.00 0.00 0.00 93 1015.3
20260904011516 68 248 9.0 21.0 0.00 0.00 0.00 93 1015.2
20260904010516 68 225 9.0 15.0 0.00 0.00 0.00 92 1015.3
20260904005517 68 225 9.0 19.0 0.00 0.00 0.00 92 1015.5
20260904004518 68 225 7.0 15.0 0.00 0.00 0.00 92 1015.5
20260904003518 68 248 9.0 16.0 0.00 0.00 0.00 92 1015.9
20260904002516 68 248 9.0 19.0 0.00 0.00 0.00 92 1015.9
20260904001518 68 225 9.0 14.0 0.00 0.00 0.00 92 1016.0
20260904000517 68 248 6.0 12.0 0.00 0.00 0.00 92 1016.0
20260903235536 68 248 9.0 24.0 0.00 0.00 0.00 91 1016.1
20260903234518 68 225 8.0 16.0 0.00 0.00 0.00 91 1016.1
20260903233538 68 225 10.0 17.0 0.00 0.00 0.00 91 1016.0
20260903232518 68 225 11.0 20.0 0.00 0.00 0.00 91 1016.1
20260903231516 68 225 9.0 17.0 0.00 0.00 0.00 91 1016.2
20260903230538 68 225 9.0 15.0 0.00 0.00 0.00 91 1016.2
20260903225516 68 225 9.0 20.0 0.00 0.00 0.00 91 1016.4
20260903224518 68 248 9.0 19.0 0.00 0.00 0.00 91 1016.3
20260903223518 68 225 5.0 9.0 0.00 0.00 0.00 91 1016.5
20260903222516 68 225 4.0 10.0 0.00 0.00 0.00 91 1016.6
20260903221518 68 248 7.0 13.0 0.00 0.00 0.00 90 1016.7
20260903220516 68 225 4.0 10.0 0.00 0.00 0.00 90 1016.9
20260903215518 68 248 5.0 11.0 0.00 0.00 0.00 90 1017.0
20260903214518 68 225 5.0 11.0 0.00 0.00 0.00 90 1017.1
20260903213516 68 248 6.0 13.0 0.00 0.00 0.00 90 1017.4
20260903212518 68 248 6.0 16.0 0.00 0.00 0.00 90 1017.5
20260903211516 68 248 6.0 15.0 0.00 0.00 0.00 90 1017.6
20260903210518 68 248 7.0 15.0 0.00 0.00 0.00 90 1017.7
20260903205516 68 225 8.0 17.0 0.00 0.00 0.00 90 1017.5
20260903204518 68 225 8.0 14.0 0.00 0.00 0.00 90 1017.4
20260903203516 69 248 8.0 16.0 0.00 0.00 0.00 90 1017.2
20260903202518 69 248 8.0 15.0 0.00 0.00 0.00 90 1017.2
20260903201536 69 248 8.0 16.0 0.00 0.00 0.00 90 1017.5
20260903200538 69 248 7.0 14.0 0.00 0.00 0.00 90 1017.6
20260903195536 69 248 6.0 11.0 0.00 0.00 0.00 90 1017.6
20260903194516 69 225 8.0 18.0 0.00 0.00 0.00 90 1017.6
20260903193537 69 248 9.0 16.0 0.00 0.01 0.00 90 1017.6
20260903192519 69 225 6.0 12.0 0.00 0.01 0.00 90 1017.7
20260903191516 69 248 8.0 18.0 0.00 0.01 0.00 90 1017.7
20260903190601 70 248 7.0 16.0 0.00 0.01 0.00 89 1017.7
20260903185516 70 248 7.0 16.0 0.00 0.01 0.00 89 1017.7
20260903184517 70 248 9.0 20.0 0.00 0.01 0.00 89 1017.6
20260903183518 70 225 7.0 15.0 0.00 0.01 0.00 89 1017.6
20260903182536 70 248 7.0 13.0 0.00 0.01 0.00 88 1017.7
20260903181536 70 225 7.0 15.0 0.00 0.01 0.00 88 1017.8
20260903180517 70 248 10.0 17.0 0.00 0.01 0.00 88 1017.7
20260903175517 71 248 10.0 17.0 0.00 0.02 0.00 87 1017.7
20260903174537 71 248 7.0 12.0 0.00 0.02 0.00 87 1017.8
20260903173516 71 248 9.0 17.0 0.00 0.02 0.00 86 1017.7
20260903172516 72 248 8.0 15.0 0.00 0.02 0.00 85 1017.6
20260903171639 72 248 7.0 13.0 0.00 0.02 0.00 84 1017.6
20260903170517 72 248 6.0 14.0 0.00 0.02 0.00 84 1017.8
20260903165516 72 248 8.0 17.0 0.00 0.02 0.00 84 1017.7
20260903164517 73 248 11.0 21.0 0.00 0.02 0.00 83 1017.7
20260903163516 73 248 10.0 19.0 0.00 0.02 0.00 83 1017.8
20260903162516 73 248 10.0 17.0 0.00 0.02 0.00 83 1017.8
20260903161517 73 248 10.0 18.0 0.00 0.02 0.00 83 1017.8
20260903160517 74 248 10.0 19.0 0.00 0.03 0.00 82 1017.8
20260903155516 74 248 8.0 14.0 0.00 0.03 0.00 83 1018.1
20260903154515 73 248 8.0 16.0 0.00 0.03 0.00 83 1018.1
20260903153517 73 225 8.0 16.0 0.00 0.03 0.00 83 1018.2
20260903152516 73 248 10.0 18.0 0.00 0.03 0.00 83 1018.3
20260903151515 73 248 10.0 18.0 0.00 0.03 0.00 82 1018.4
20260903150516 74 248 12.0 22.0 0.00 0.03 0.00 82 1018.4
20260903145515 74 225 8.0 19.0 0.00 0.03 0.00 82 1018.4
20260903144515 75 248 11.0 19.0 0.00 0.03 0.00 80 1018.3
20260903143515 74 225 9.0 20.0 0.00 0.03 0.00 81 1018.4
20260903142515 74 248 12.0 20.0 0.00 0.03 0.00 81 1018.3
20260903141515 74 225 10.0 18.0 0.00 0.03 0.00 82 1018.3
20260903140517 74 248 10.0 18.0 0.00 0.03 0.00 83 1018.4
20260903135535 73 248 10.0 20.0 0.00 0.03 0.00 83 1018.5
20260903134515 73 225 9.0 17.0 0.00 0.03 0.00 84 1018.5
20260903133518 73 225 8.0 18.0 0.00 0.03 0.00 84 1018.5
20260903132515 73 248 7.0 15.0 0.00 0.03 0.00 84 1018.6
20260903131539 73 225 9.0 16.0 0.00 0.03 0.00 83 1018.6
20260903130517 74 225 9.0 18.0 0.00 0.03 0.00 82 1018.7
20260903125517 74 225 11.0 19.0 0.00 0.03 0.00 83 1018.7
20260903124517 73 225 9.0 20.0 0.00 0.03 0.00 84 1018.9
20260903123515 73 248 9.0 15.0 0.00 0.03 0.00 84 1018.9
20260903122517 73 248 9.0 18.0 0.00 0.03 0.00 84 1018.9
20260903121517 73 248 8.0 16.0 0.00 0.03 0.00 85 1018.9
20260903120515 72 248 8.0 13.0 0.00 0.03 0.00 85 1018.7
20260903115515 72 248 7.0 14.0 0.00 0.03 0.00 85 1018.6
20260903114515 72 248 7.0 16.0 0.00 0.03 0.00 85 1018.6
20260903113515 72 248 8.0 16.0 0.00 0.03 0.00 84 1018.8
20260903112515 73 248 7.0 15.0 0.00 0.03 0.00 84 1019.0
20260903111535 73 270 8.0 17.0 0.00 0.03 0.00 82 1019.0
20260903110515 74 248 7.0 14.0 0.00 0.03 0.00 80 1019.0
20260903105517 74 248 9.0 16.0 0.00 0.03 0.00 80 1018.9
20260903104517 74 248 7.0 16.0 0.00 0.03 0.00 78 1018.9
20260903103540 75 248 6.0 13.0 0.00 0.03 0.00 77 1018.9
20260903102537 74 248 7.0 14.0 0.00 0.03 0.00 78 1018.9
20260903101517 74 248 7.0 15.0 0.00 0.03 0.00 79 1018.8
20260903100517 73 270 6.0 14.0 0.00 0.03 0.00 81 1018.8
20260903095520 72 248 5.0 11.0 0.00 0.03 0.00 84 1018.9
20260903094519 71 270 7.0 17.0 0.00 0.03 0.00 86 1018.8
20260903093518 71 248 5.0 12.0 0.00 0.03 0.00 87 1018.8
20260903092517 70 248 5.0 13.0 0.00 0.03 0.00 87 1018.6
20260903091537 70 293 5.0 14.0 0.00 0.03 0.00 87 1018.8
20260903090519 71 270 6.0 14.0 0.00 0.03 0.00 86 1018.9
20260903085519 71 248 6.0 14.0 0.00 0.03 0.00 85 1018.7
20260903084515 72 248 6.0 14.0 0.00 0.03 0.00 85 1018.6
20260903083517 72 248 7.0 14.0 0.00 0.03 0.00 85 1018.5
20260903082518 71 248 9.0 15.0 0.00 0.03 0.00 86 1018.5
20260903081537 71 248 9.0 14.0 0.00 0.03 0.00 87 1018.3
20260903080517 70 248 6.0 12.0 0.00 0.03 0.00 88 1018.4
20260903075537 70 248 7.0 14.0 0.00 0.03 0.00 89 1018.3
20260903074517 69 248 6.0 11.0 0.00 0.03 0.00 92 1018.2
20260903073517 68 248 6.0 13.0 0.00 0.03 0.00 92 1018.2
20260903072518 68 248 6.0 13.0 0.00 0.03 0.00 92 1018.1
20260903071538 68 270 7.0 14.0 0.00 0.03 0.00 92 1018.3
20260903070539 68 225 5.0 11.0 0.00 0.03 0.00 92 1018.2
20260903065518 68 248 5.0 9.0 0.00 0.03 0.00 92 1018.2
20260903064538 68 248 6.0 11.0 0.00 0.03 0.00 93 1018.3
20260903063518 67 248 4.0 11.0 0.00 0.03 0.00 93 1018.1
20260903062518 67 248 5.0 13.0 0.00 0.03 0.00 93 1018.1
20260903061517 67 248 5.0 10.0 0.00 0.03 0.00 93 1017.9
20260903060517 67 248 5.0 11.0 0.00 0.03 0.00 93 1018.0
20260903055518 67 248 5.0 11.0 0.00 0.03 0.00 92 1017.9
20260903054517 67 248 5.0 11.0 0.00 0.03 0.00 92 1018.0
20260903053518 67 293 6.0 11.0 0.00 0.03 0.00 92 1018.0
20260903052517 67 270 5.0 14.0 0.00 0.03 0.00 92 1017.6
20260903051516 67 270 4.0 12.0 0.00 0.03 0.00 92 1017.7
20260903050517 67 248 6.0 16.0 0.00 0.03 0.00 92 1017.5
20260903045517 67 248 5.0 11.0 0.00 0.03 0.00 92 1017.5
20260903044517 67 225 7.0 16.0 0.00 0.03 0.00 92 1017.3